Tracking 19720 objects as of 26-Jun-2019
HD Live streaming from Space Station
objects crossing your sky now

METEOR 1-27 DEB

Track METEOR 1-27 DEB now!
10-day predictions


NORAD ID: 38533
Int'l Code: 1977-024D
Perigee: 786.3 km
Apogee: 832.0 km
Inclination: 81.2 °
Period: 100.9 minutes
Semi major axis: 7180 km
RCS: 0.0037 m2 (small)
Launch date: April 5, 1977
Source: Commonwealth of Independent States (former USSR) (CIS)
Launch site: PLESETSK MISSILE AND SPACE COMPLEX (PKMTR)

Note: This is SATELLITE DEBRIS
aabbcc
Your satellite tracking list
Your tracking list is empty




NASA's NSSDC Master Catalog

Two Line Element Set (TLE):
1 38533U 77024D   19171.35708429  .00001164  00000-0  47153-3 0  9994
2 38533  81.2419  35.7036 0031881 242.4597 117.3343 14.26930892433058
Source of the keplerian elements: AFSPC